sat.trackr.live / text

‹ back to catalog

STARLINK-36963

NORAD 68235 · 2026-054D

PAYLOAD ACTIVE UNKNOWN

§ Identity

Operator
Country
US
Launch date
2026-03-17
Launch site
AFETR
Launch vehicle
Mass (kg)
RCS (m²)

Purposes: comms

External: N2YO · Heavens-Above · Gunter

§ Orbital elements

Epoch: 2026-09-19T22:55:44.387040Z

Period
93.85 min
Inclination
53.1595°
Eccentricity
0.0001177
Mean motion
15.34408967 rev/d
Perigee alt
461.9 km
Apogee alt
463.5 km
Semi-major
6,840.8 km
B*
4.7574e-4
RAAN
104.6101°
Arg perigee
90.3522°
Mean anomaly
269.7616°
Rev number
2,887

§ Raw data

STARLINK-369631 68235U 26054D   26262.95537485  .00015736  00000+0  47574-3 0  99962 68235  53.1595 104.6101 0001177  90.3522 269.7616 15.34408967 28873

JSON: /api/v1/satellites/68235 · /tle

For live sub-satellite position, see the globe view (requires WebGL).

§ Visibility from observer

Set your observer location to see the next 7 days of passes ≥ 10°. The values pass through the URL so the page stays shareable.

No JS? Fill the form by hand. The geolocation button needs JavaScript.